Location: Asheville, NC
(35.6000°N, 82.5500°W)
Time: 20:37:43
(UTC-04:00)

RS-15 - Pass Details

Date: 11 March 2018
Orbit: 1890 x 2154 km, 64.8° (Epoch: 20 June)

Event Time Altitude Azimuth Distance (km) Brightness Sun altitude
Exits shadow 00:40:08 33° 25° (NNE) 3,139 9.1 -58.1°
Drops below altitude 10° 00:45:30 10° 29° (NNE) 4,590 10.3 -58.1°
Sets 00:48:52 0° 30° (NNE) 5,566 10.8 -58.1°
